Location: Frydek-Mistek
(49.6830°N, 18.3330°E)
Time: 07:55:52
(UTC+02:00)

Courier 1B Rocket - Visible Passes

Search period start: 20 September 2014 00:00
Search period end: 30 September 2014 00:00
Orbit: 921 x 1202 km, 28.2° (Epoch: 18 September)

Date Brightness Start Highest point End Pass type
(mag) Time Alt. Az. Time Alt. Az. Time Alt. Az.
20 Sep 7.3 19:23:08 10° SSW 19:26:08 13° S 19:29:11 10° SSE visible
21 Sep 7.3 20:15:34 10° SSW 20:17:36 11° S 20:19:40 10° S visible
22 Sep 7.3 19:14:31 10° SSW 19:16:59 12° S 19:19:31 10° SSE visible
24 Sep 7.5 19:07:01 10° SSW 19:07:52 10° S 19:08:43 10° S visible
